Date_and_time,latitude,longitude,wind_speed,RelWindDirFrom,WindDirFrom,air_pressure,air_temperature,relative_humidity,Temp,platform_speed_wrt_ground,air_pressure_at_mean_sea_level,platform_orientation
2019-10-02 23:40,50.7180566666667,-96.8971166666667,11.0,13.8,173,996.75,6.2,69,12.20,11.1,1024.27,206.2
2019-10-02 23:50,50.6873366666667,-96.9005566666667,9.1,11.9,178,996.91,6.2,69,12.11,11.1,1024.44,206.2
2019-10-03 00:00,50.6571166666667,-96.9113,6.1,9.2,146,997.01,6.2,69,12.18,11.2,1024.55,184.1
2019-10-03 00:10,50.630505,-96.9235533333333,4.7,10.9,157,996.90,6.3,69,12.21,10.0,1024.43,184.1
2019-10-03 00:20,50.628405,-96.9712583333333,6.8,9.6,303,996.91,6.5,70,11.93,10.9,1024.43,184.1
2019-10-03 00:30,50.630435,-96.9807466666667,4.4,10.1,333,996.93,6.2,72,11.20,2.3,1024.45,184.1
2019-10-03 00:40,50.6304233333333,-96.9807483333333,4.3,6.2,313,996.97,5.6,74,10.37,0.0,1024.52,184.1
2019-10-03 00:50,50.63042,-96.98075,3.6,6.1,313,997.00,5.4,75,10.21,0.0,1024.55,184.1
2019-10-03 01:00,50.6304183333333,-96.98075,3.0,5.9,324,997.01,5.5,76,10.14,0.0,1024.56,191.0
2019-10-03 01:10,50.6304166666667,-96.9807483333333,3.2,6.9,9,997.06,5.7,74,10.12,0.0,1024.59,191.0
2019-10-03 01:20,50.6304333333333,-96.980745,7.0,9.8,51,997.10,6.6,69,10.15,0.0,1024.58,191.0
2019-10-03 01:30,50.6304233333333,-96.9807416666667,6.3,8.9,59,997.07,6.8,68,10.17,0.0,1024.53,191.0
2019-10-03 01:40,50.6304233333333,-96.980745,6.3,8.5,77,997.07,7.0,68,10.14,0.0,1024.52,191.0
2019-10-03 01:50,50.6304233333333,-96.9807466666667,5.5,8.5,60,997.09,7.0,70,10.01,0.0,1024.55,191.0
2019-10-03 02:00,50.630425,-96.9807483333333,4.9,8.9,65,997.02,7.0,69,9.94,0.0,1024.47,197.7
2019-10-03 02:10,50.630425,-96.98075,5.9,8.6,61,996.96,7.0,70,9.94,0.0,1024.39,197.7
2019-10-03 02:20,50.630425,-96.9807516666667,6.2,8.0,50,996.87,6.9,69,9.99,0.0,1024.32,197.7
2019-10-03 02:30,50.630425,-96.9807516666667,4.0,6.2,40,996.84,6.9,68,10.04,0.0,1024.33,197.7
2019-10-03 02:40,50.6304233333333,-96.9807516666667,1.2,4.2,15,996.78,6.6,73,10.09,0.0,1024.28,197.7
2019-10-03 02:50,50.6304233333333,-96.9807516666667,3.9,6.9,310,996.75,5.5,78,10.09,0.0,1024.30,197.7
2019-10-03 03:00,50.6304233333333,-96.9807533333333,5.2,6.7,309,996.61,5.2,79,10.08,0.0,1024.16,238.8
2019-10-03 03:10,50.630415,-96.9807583333333,4.9,7.0,307,996.55,5.1,80,10.08,0.0,1024.06,238.8
2019-10-03 03:20,50.6304183333333,-96.9807666666667,6.4,9.0,310,996.52,5.0,80,10.09,0.0,1024.02,238.8
2019-10-03 03:30,50.6304183333333,-96.98076,5.2,8.3,310,996.58,4.9,80,10.11,0.0,1024.08,238.8
2019-10-03 03:40,50.6304183333333,-96.9807533333333,3.4,5.5,294,996.65,4.9,80,10.12,0.0,1024.15,238.8
2019-10-03 03:50,50.6304166666667,-96.9807533333333,3.5,6.3,301,996.65,4.9,80,10.11,0.0,1024.15,238.8
2019-10-03 04:00,50.630415,-96.9807516666667,5.3,7.8,316,996.67,4.9,80,10.12,0.0,1024.18,0.0
2019-10-03 04:10,50.630415,-96.9807533333333,5.1,8.1,324,996.64,4.9,80,10.11,0.0,1024.15,0.0
2019-10-03 04:20,50.6304083333333,-96.9807583333333,3.6,5.9,316,996.76,4.9,80,10.11,0.0,1024.27,0.0
2019-10-03 04:30,50.6304166666667,-96.9807583333333,4.5,6.9,325,996.60,5.0,80,10.14,0.0,1024.12,0.0
2019-10-03 04:40,50.6304183333333,-96.9807566666667,4.4,7.2,314,996.44,5.0,80,10.14,0.0,1024.01,0.0
2019-10-03 04:50,50.63042,-96.9807583333333,6.2,8.5,316,996.37,4.9,80,10.07,0.0,1023.96,0.0
2019-10-03 05:00,50.6304166666667,-96.9807566666667,5.1,7.0,309,996.36,4.8,81,10.05,0.0,1023.95,360.0
2019-10-03 05:10,50.6304166666667,-96.9807566666667,4.2,6.9,315,996.36,4.8,81,10.08,0.0,1023.96,360.0
2019-10-03 05:20,50.6304183333333,-96.9807566666667,4.1,6.0,309,996.20,4.8,81,10.10,0.0,1023.80,360.0
2019-10-03 05:30,50.6304183333333,-96.9807566666667,4.5,6.2,310,996.01,4.8,82,10.10,0.0,1023.61,360.0
2019-10-03 05:40,50.6304216666667,-96.980765,4.8,6.6,308,995.96,4.8,82,10.09,0.0,1023.55,360.0
2019-10-03 05:50,50.63042,-96.9807683333333,3.9,5.8,292,995.97,4.8,83,10.09,0.0,1023.57,360.0
2019-10-03 06:00,50.6304166666667,-96.98075,4.9,6.7,293,995.94,4.8,83,10.10,0.0,1023.53,360.0
2019-10-03 06:10,50.6304183333333,-96.9807583333333,5.0,7.3,300,995.91,4.8,83,10.09,0.0,1023.50,360.0
2019-10-03 06:20,50.63042,-96.9807633333333,4.4,6.7,302,995.88,4.8,85,10.10,0.0,1023.47,360.0
2019-10-03 06:30,50.6304183333333,-96.9807616666667,4.3,6.1,301,995.81,4.8,86,10.12,0.0,1023.40,360.0
2019-10-03 06:40,50.6304183333333,-96.98076,5.6,7.7,307,995.77,4.7,87,10.02,0.0,1023.36,360.0
2019-10-03 06:50,50.6304183333333,-96.9807583333333,6.2,8.3,309,995.77,4.6,88,10.03,0.0,1023.37,360.0
2019-10-03 07:00,50.63042,-96.9807583333333,5.9,8.4,309,995.79,4.6,90,10.06,0.0,1023.40,347.4
2019-10-03 07:10,50.6304233333333,-96.9807116666667,6.2,8.1,313,995.77,4.5,92,10.08,0.0,1023.38,347.4
2019-10-03 07:20,50.6304166666667,-96.9807383333333,6.5,8.7,312,995.67,4.4,94,10.08,0.0,1023.28,347.4
2019-10-03 07:30,50.6304183333333,-96.980745,5.9,7.7,307,995.65,4.4,95,10.08,0.0,1023.27,347.4
2019-10-03 07:40,50.6304166666667,-96.98075,5.4,7.7,306,995.72,4.4,95,10.07,0.0,1023.34,347.4
2019-10-03 07:50,50.630415,-96.9807516666667,5.8,8.0,310,995.77,4.4,94,10.07,0.0,1023.38,347.4
2019-10-03 08:00,50.6304166666667,-96.9807366666667,6.0,8.1,310,995.76,4.4,93,10.07,0.0,1023.37,90.0
2019-10-03 08:10,50.6304116666667,-96.9807483333333,5.9,7.9,306,995.75,4.3,93,10.07,0.0,1023.37,90.0
2019-10-03 08:20,50.6304116666667,-96.98075,6.1,8.1,308,995.73,4.3,92,10.07,0.0,1023.35,90.0
2019-10-03 08:30,50.6304066666667,-96.9807316666667,6.2,8.7,311,995.71,4.4,92,10.06,0.0,1023.33,90.0
2019-10-03 08:40,50.6304116666667,-96.9807366666667,5.9,8.2,312,995.66,4.3,92,10.05,0.0,1023.29,90.0
2019-10-03 08:50,50.6304133333333,-96.9807383333333,6.3,8.5,312,995.64,4.3,92,10.04,0.0,1023.27,90.0
2019-10-03 09:00,50.6304133333333,-96.9807366666667,6.1,8.9,312,995.60,4.3,93,10.04,0.0,1023.23,90.0
2019-10-03 09:10,50.630415,-96.980735,5.7,8.1,310,995.56,4.3,94,10.02,0.0,1023.19,90.0
2019-10-03 09:20,50.6304166666667,-96.980735,6.3,9.3,315,995.50,4.3,95,9.99,0.0,1023.13,90.0
2019-10-03 09:30,50.6304383333333,-96.9807583333333,7.1,10.0,322,995.44,4.4,95,9.97,0.0,1023.06,90.0
2019-10-03 09:40,50.63043,-96.9807533333333,6.5,9.5,323,995.49,4.6,95,9.95,0.0,1023.11,90.0
2019-10-03 09:50,50.6304283333333,-96.9807483333333,6.9,10.0,326,995.54,4.8,93,9.93,0.0,1023.15,90.0
2019-10-03 10:00,50.6304283333333,-96.9807483333333,7.3,10.1,325,995.51,5.0,92,9.90,0.0,1023.12,48.3
2019-10-03 10:10,50.6304283333333,-96.980745,6.6,9.4,325,995.56,5.0,91,9.90,0.0,1023.15,48.3
2019-10-03 10:20,50.6304283333333,-96.980745,6.4,8.6,324,995.65,5.1,89,9.89,0.0,1023.24,48.3
2019-10-03 10:30,50.6304283333333,-96.980745,6.8,9.3,314,995.69,5.1,89,9.87,0.0,1023.30,48.3
2019-10-03 10:40,50.6304283333333,-96.980745,7.4,9.9,321,995.67,5.0,90,9.84,0.0,1023.28,48.3
2019-10-03 10:50,50.6304283333333,-96.9807466666667,6.6,10.1,326,995.74,5.0,90,9.82,0.0,1023.35,48.3
2019-10-03 11:00,50.6304283333333,-96.9807483333333,6.6,10.2,329,995.70,5.1,88,9.83,0.0,1023.30,323.4
2019-10-03 11:10,50.6304266666667,-96.9807466666667,6.9,9.3,330,995.64,5.1,87,9.84,0.0,1023.23,323.4
2019-10-03 11:20,50.6304183333333,-96.98074,6.6,9.1,326,995.58,5.1,87,9.84,0.0,1023.17,323.4
2019-10-03 11:30,50.630425,-96.9807483333333,7.2,9.9,323,995.58,5.0,86,9.83,0.0,1023.17,323.4
2019-10-03 11:40,50.6304233333333,-96.9807483333333,6.5,9.5,321,995.65,4.8,87,9.83,0.0,1023.24,323.4
2019-10-03 11:50,50.6304233333333,-96.9807666666667,6.9,10.7,324,995.62,4.7,88,9.82,0.0,1023.21,323.4
2019-10-03 12:00,50.6304266666667,-96.9807533333333,7.5,11.7,324,995.66,4.5,89,9.80,0.0,1023.26,311.7
2019-10-03 12:10,50.6300766666667,-96.9807033333333,7.8,10.4,324,995.75,4.3,90,9.78,0.1,1023.35,311.7
2019-10-03 12:20,50.627915,-96.9572066666667,7.8,13.3,6,995.99,4.4,91,10.08,5.4,1023.60,311.7
2019-10-03 12:30,50.63018,-96.9167266666667,15.0,18.8,18,995.98,5.1,90,11.09,9.3,1023.56,311.7
2019-10-03 12:40,50.657765,-96.9176633333333,24.2,26.9,354,994.51,5.9,87,11.51,9.9,1022.00,311.7
2019-10-03 12:50,50.6872033333333,-96.9217866666667,24.4,26.4,351,994.60,5.8,89,11.47,10.6,1022.09,311.7
2019-10-03 13:00,50.7019816666667,-96.923585,18.5,25.6,345,995.33,5.6,92,11.20,5.3,1022.86,26.8
2019-10-03 13:10,50.70833,-96.9244266666667,15.6,18.1,344,995.69,5.7,92,11.19,2.3,1023.23,26.8
2019-10-03 13:20,50.71478,-96.9257583333333,15.8,18.6,345,995.74,5.9,89,11.29,2.3,1023.28,26.8
2019-10-03 13:30,50.7213516666667,-96.926945,15.9,20.0,347,995.75,6.0,88,11.37,2.4,1023.29,26.8
2019-10-03 13:40,50.73347,-96.92907,16.9,24.4,352,995.73,6.0,87,11.55,4.4,1023.27,26.8
2019-10-03 13:50,50.7334766666667,-96.9290683333333,12.1,14.6,346,996.16,5.8,85,11.66,0.0,1023.73,26.8
2019-10-03 14:00,50.7334716666667,-96.92914,11.7,14.1,349,996.23,5.8,83,11.67,0.0,1023.82,17.6
2019-10-03 14:10,50.7282516666667,-96.910885,9.7,13.3,11,996.51,5.8,83,11.68,4.6,1024.10,17.6
2019-10-03 14:20,50.7168133333333,-96.86611,11.8,15.5,50,996.67,6.0,83,11.80,11.0,1024.21,17.6
2019-10-03 14:30,50.7076933333333,-96.8352166666667,12.2,16.7,50,996.70,6.2,81,11.94,7.8,1024.20,17.6
2019-10-03 14:40,50.7047333333333,-96.82644,9.0,12.4,55,996.84,6.1,80,11.98,2.3,1024.35,17.6
2019-10-03 14:50,50.7018366666667,-96.8173833333333,8.2,11.1,65,996.91,5.7,84,12.02,2.3,1024.45,17.6
2019-10-03 15:00,50.7003233333333,-96.8075466666667,7.5,9.1,75,997.02,5.7,84,12.06,2.3,1024.56,57.5
2019-10-03 15:10,50.6971183333333,-96.7894,8.4,12.7,82,997.03,5.6,84,12.10,4.3,1024.56,57.5
2019-10-03 15:20,50.6968983333333,-96.7897683333333,4.5,7.5,64,997.20,5.8,83,12.13,0.1,1024.72,57.5
2019-10-03 15:30,50.6968883333333,-96.7896866666667,3.8,6.1,71,997.28,5.8,83,12.14,0.0,1024.81,57.5
2019-10-03 15:40,50.7115783333333,-96.7616266666667,11.8,19.2,51,996.98,5.8,82,12.15,8.3,1024.51,57.5
2019-10-03 15:50,50.7308583333333,-96.7238383333333,14.9,18.8,40,996.77,6.0,78,12.18,11.1,1024.28,57.5
2019-10-03 16:00,50.7497783333333,-96.68567,17.3,20.6,46,996.48,6.3,74,12.25,11.0,1023.97,72.3
2019-10-03 16:10,50.7686816666667,-96.64772,17.9,20.5,45,996.45,6.4,72,12.31,11.0,1023.92,72.3
2019-10-03 16:20,50.78758,-96.60979,17.4,21.0,43,996.60,6.3,71,12.31,11.0,1024.07,72.3
2019-10-03 16:30,50.8065466666667,-96.572015,16.9,19.5,43,996.75,6.3,70,12.31,11.0,1024.23,72.3
2019-10-03 16:40,50.825555,-96.5343766666667,16.1,19.2,46,996.93,6.2,70,12.35,11.0,1024.44,72.3
2019-10-03 16:50,50.84408,-96.4962133333333,15.4,18.0,45,997.01,6.3,71,12.26,10.9,1024.52,72.3
2019-10-03 17:00,50.8587183333333,-96.4662683333333,13.0,17.7,35,997.17,6.2,71,12.14,8.6,1024.69,66.6
2019-10-03 17:10,50.86284,-96.4580833333333,7.5,9.7,14,997.51,6.2,69,11.86,2.4,1025.03,66.6
2019-10-03 17:20,50.8665966666667,-96.4500283333333,7.3,11.0,9,997.64,6.3,66,11.74,2.3,1025.16,66.6
2019-10-03 17:30,50.8704866666667,-96.4419966666667,7.5,9.6,25,997.60,6.4,66,12.00,2.3,1025.11,66.6
2019-10-03 17:40,50.8786533333333,-96.42499,9.3,16.4,26,997.52,6.4,66,12.15,4.9,1025.03,66.6
2019-10-03 17:50,50.8784666666667,-96.424945,3.7,5.9,350,997.76,6.9,64,12.00,0.1,1025.23,66.6
2019-10-03 18:00,50.8784416666667,-96.4249266666667,4.4,8.5,338,997.79,7.1,64,12.00,0.0,1025.25,53.5
2019-10-03 18:10,50.864535,-96.4316183333333,3.5,10.4,281,997.85,7.2,64,12.06,5.2,1025.31,53.5
2019-10-03 18:20,50.834645,-96.4448716666667,7.3,9.4,219,997.88,7.1,64,12.05,11.2,1025.34,53.5
2019-10-03 18:30,50.8046616666667,-96.4567783333333,7.8,10.1,213,998.00,6.9,65,12.11,11.1,1025.48,53.5
2019-10-03 18:40,50.7747816666667,-96.4684233333333,7.5,10.6,218,998.09,7.1,65,12.04,11.1,1025.56,53.5
2019-10-03 18:50,50.7446666666667,-96.4752166666667,7.6,10.1,207,998.14,7.2,65,11.94,11.0,1025.62,53.5
2019-10-03 19:00,50.718545,-96.4498066666667,6.0,7.8,135,998.19,7.2,65,12.07,11.0,1025.66,101.7
2019-10-03 19:10,50.6934416666667,-96.4229066666667,6.6,9.5,140,998.22,7.2,64,12.62,10.9,1025.69,101.7
2019-10-03 19:20,50.6793,-96.4079683333333,1.0,7.6,122,998.31,7.2,63,13.07,6.1,1025.78,101.7
2019-10-03 19:30,50.6735266666667,-96.4029766666667,4.1,6.1,345,998.32,7.6,61,13.13,2.4,1025.77,101.7
2019-10-03 19:40,50.667805,-96.3980166666667,4.1,7.4,337,998.28,8.6,59,13.17,2.3,1025.66,101.7
2019-10-03 19:50,50.66208,-96.3925616666667,4.2,7.1,1,998.27,7.5,63,13.18,2.4,1025.69,101.7
2019-10-03 20:00,50.6501033333333,-96.3791683333333,3.0,7.3,34,998.32,7.1,65,13.17,5.3,1025.75,165.2
2019-10-03 20:10,50.6498433333333,-96.3790766666667,7.2,10.3,340,998.32,7.2,64,13.20,0.1,1025.75,165.2
2019-10-03 20:20,50.6526466666667,-96.381665,7.3,13.7,344,998.28,7.4,63,13.19,1.2,1025.72,165.2
2019-10-03 20:30,50.6744333333333,-96.40348,15.2,18.6,334,997.98,7.3,62,13.20,9.3,1025.39,165.2
2019-10-03 20:40,50.699115,-96.42787,15.5,18.5,329,997.93,7.4,62,13.23,10.5,1025.33,165.2
2019-10-03 20:50,50.7248383333333,-96.44081,15.4,19.8,325,997.92,7.4,63,13.08,9.7,1025.33,165.2
2019-10-03 21:00,50.73208,-96.44232,7.2,9.4,285,998.54,7.4,62,12.48,2.6,1025.96,184.3
2019-10-03 21:10,50.7387433333333,-96.4437416666667,7.3,10.6,300,998.59,7.5,59,12.14,2.4,1026.01,184.3
2019-10-03 21:20,50.745085,-96.4455483333333,8.8,11.4,311,998.56,7.6,61,11.95,2.3,1025.96,184.3
2019-10-03 21:30,50.7586033333333,-96.4497733333333,10.4,17.4,334,998.45,7.9,57,11.84,5.0,1025.78,184.3
2019-10-03 21:40,50.7587566666667,-96.44938,5.2,7.7,304,998.72,8.3,56,11.77,0.1,1026.09,184.3
2019-10-03 21:50,50.7587166666667,-96.44942,4.6,6.7,307,998.75,8.7,55,11.75,0.0,1026.12,184.3
2019-10-03 22:00,50.7586983333333,-96.4495016666667,3.6,5.7,323,998.75,8.7,56,11.73,0.0,1026.11,360.0
2019-10-03 22:10,50.759045,-96.45005,4.0,5.7,302,998.73,8.7,56,11.73,0.2,1026.08,360.0
2019-10-03 22:20,50.7773516666667,-96.4860766666667,13.9,16.8,317,998.45,8.6,56,11.76,10.5,1025.80,360.0
2019-10-03 22:30,50.79519,-96.52507,13.4,16.4,319,998.50,8.0,57,11.89,11.0,1025.88,360.0
2019-10-03 22:40,50.7848916666667,-96.5697333333333,11.3,16.9,271,998.59,8.1,57,12.02,10.8,1025.97,360.0
2019-10-03 22:50,50.758355,-96.5901516666667,9.3,14.7,233,998.64,8.3,55,12.35,10.6,1026.01,360.0
2019-10-03 23:00,50.7276833333333,-96.5956233333333,8.4,10.7,209,998.77,8.3,55,12.42,11.1,1026.14,299.6
2019-10-03 23:10,50.6973283333333,-96.5957633333333,9.4,12.3,205,998.82,8.5,56,12.43,10.9,1026.18,299.6
2019-10-03 23:20,50.6906016666667,-96.5617183333333,5.9,11.8,124,998.93,8.4,55,12.11,8.1,1026.28,299.6
2019-10-03 23:30,50.694755,-96.56226,3.3,5.6,273,998.98,8.4,55,11.88,1.5,1026.32,299.6
2019-10-03 23:40,50.694755,-96.5622583333333,3.2,5.1,293,999.02,8.5,55,11.41,0.0,1026.33,299.6
